Regional Weather Roundup
Issued by NWS

Home | Current Version | Previous Version | Graphics & Text | Print | Product List | Glossary On
Versions: 1 2 3 4 5 6 7 8 9 10 11 12 13 14 15 16 17 18 19 20 21 22 23 24 25 26 27 28 29 30 31 32 33 34 35 36 37 38 39 40 41 42 43 44 45 46 47 48 49 50
000
ASUS44 KMEG 301110
RWRTN
TENNESSEE HOURLY STATE WEATHER ROUNDUP
NATIONAL WEATHER SERVICE MEMPHIS TN
600 AM CDT MON MAR 30 2015

TNZ002-004-019-021-049-052-054-088>092-301200-
WEST TENNESSEE

CITY           SKY/WX    TMP DP  RH WIND       PRES   REMARKS
MEMPHIS INTL   CLEAR     53  47  79 N3        30.15R
NWS MEMPHIS      N/A     49 N/A N/A MISG        N/A
JACKSON        CLEAR     46  44  93 NW3       30.14R FOG
DYERSBURG      CLEAR     46  30  53 CALM      30.17R
UNION CITY     CLEAR     41  41 100 CALM      30.14R
PARIS          CLEAR     36  36 100 CALM      30.14R
HUNTINGDON     CLEAR     42  42 100 CALM      30.14R
LEXINGTON      MOCLDY    43  43 100 CALM      30.12R
SAVANNAH       CLOUDY    48  48 100 CALM      30.13R VSB 1/2
$$

TNZ008-025-027-028-033-062-065-066-301200-
NORTH MIDDLE TENNESSEE

CITY           SKY/WX    TMP DP  RH WIND       PRES   REMARKS
NASHVILLE      PTCLDY    47  45  93 W5        30.10R
CLARKSVILLE    CLEAR     46  43  89 W5        30.11R
SMYRNA         FOG       42  42 100 CALM      30.11R VSB<1/4
COOKEVILLE       N/A     41  41 100 CALM      30.07S VSB 1/2
CROSSVILLE     CLOUDY    46  43  89 W5        30.07R
$$

TNZ061-075-076-078-094-096-097-301200-
SOUTH MIDDLE TENNESSEE

CITY           SKY/WX    TMP DP  RH WIND       PRES   REMARKS
FAYETTEVILLE   CLOUDY    48  48 100 CALM      30.10R
TULLAHOMA      MOCLDY    46  46 100 CALM      30.11R
WINCHESTER     CLOUDY    50  48  93 CALM      30.10R
MCMINNVILLE    MOCLDY    45  45 100 SW3       30.09R VSB 1/2
COLUMBIA       CLOUDY   N/A N/A N/A CALM      30.09R VSB 0
SHELBYVILLE    CLOUDY    46  46 100 CALM      30.12R VSB 1/4
$$

TNZ017-018-042-046-047-301200-
NORTHEAST TENNESSEE

CITY           SKY/WX    TMP DP  RH WIND       PRES   REMARKS
TRI CITIES     CLOUDY    42  39  89 CALM      30.05S
ELIZABETHTON   LGT RAIN  37  36  93 CALM      30.06S
$$

TNZ012-013-036-069-073-074-301200-
CENTRAL EAST TENNESSEE

CITY           SKY/WX    TMP DP  RH WIND       PRES   REMARKS
KNOXVILLE      CLOUDY    46  44  93 SW9       30.08R
OAK RIDGE      CLOUDY    48  43  82 SW6       30.09R
GATLINBURG     CLOUDY    46  45  93 W7        30.07R
MORRISTOWN     CLOUDY    46  45  93 W12       30.07R
$$

TNZ083-085-099-301200-
SOUTHEAST TENNESSEE

CITY           SKY/WX    TMP DP  RH WIND       PRES   REMARKS
CHATTANOOGA    DRIZZLE   50  48  93 CALM      30.09R FOG
$$

SKY/WX REPORTED AS FAIR MEANS FEW OR NO CLOUDS BELOW
12 THOUSAND FEET.




USA.gov is the U.S. government's official web portal to all federal, state and local government web resources and services.